sat.trackr.live / text

‹ back to catalog

TJS-6

NORAD 47613 · 2021-010A

PAYLOAD ACTIVE UNKNOWN

§ Identity

Operator
Country
PRC
Launch date
2021-02-04
Launch site
XICLF
Launch vehicle
Mass (kg)
RCS (m²)

Purposes: comms

External: N2YO · Heavens-Above · Gunter

§ Orbital elements

Epoch: 2026-05-25T02:52:50.279232Z

Period
1,436.13 min
Inclination
0.5432°
Eccentricity
0.0002265
Mean motion
1.00269208 rev/d
Perigee alt
35,777.8 km
Apogee alt
35,796.9 km
Semi-major
42,165.5 km
B*
0.0000e+0
RAAN
87.8530°
Arg perigee
325.6172°
Mean anomaly
50.9636°
Rev number
1,958

§ Raw data

TJS-61 47613U 21010A   26145.12002638  .00000040  00000+0  00000+0 0  99972 47613   0.5432  87.8530 0002265 325.6172  50.9636  1.00269208 19589

JSON: /api/v1/satellites/47613 · /tle

For live sub-satellite position, see the globe view (requires WebGL).

§ Visibility from observer

Set your observer location to see the next 7 days of passes ≥ 10°. The values pass through the URL so the page stays shareable.

No JS? Fill the form by hand. The geolocation button needs JavaScript.